User: anonymous   Login
Location: Brachbach
(49.1847°N, 9.7240°E)
Time: 17:43:13
(UTC+00:00)
Language:

Cosmos 676 Rocket - Orbit

View from above orbital plane
View from above orbital plane
View from above satellite
View from above satellite

Ground track
Ground track

The orbit data is extracted from the following two-line orbital elements,

1 07434U 74071B   24195.93923399  .00000478  00000-0  16790-3 0  9990
2 07434  74.0458 147.4386 0019799 142.8943 217.3584 14.37488141607494
Epoch (UTC): 13 July 2024 22:32:29
Eccentricity: 0.0019799
inclination: 74.0458°
perigee height: 752 km
apogee height: 781 km
right ascension of ascending node: 147.4386°
argument of perigee: 142.8943°
revolutions per day: 14.37488141
mean anomaly at epoch: 217.3584°
orbit number at epoch: 60749

The dashed part of the orbit path shows where the satellite is in the earth's shadow,  

DLR